Aurora, IL

6:07 AM CDT on September 19, 2019 (GMT -0500)
Aurora Municipal

Weather History for KARR - August, 2019

Change the Weather History Date:

Sunday, August 18, 2019

  Actual Average Record
Temperature  
Mean Temperature 74 °F 70 °F  
Max Temperature 82 °F 81 °F 87 °F (2016)
Min Temperature 65 °F 59 °F 47 °F (2012)
Degree Days  
Heating Degree Days 0 0  
Month to date heating degree days 0 0  
Since 1 June heating degree days 25 50  
Since 1 July heating degree days 0 9  
Cooling Degree Days 9 6  
Month to date cooling degree days 113 108  
Year to date cooling degree days 611 519  
Since 1 June cooling degree days 592 478  
Growing Degree Days 24 (Base 50)    
Moisture  
Dew Point 67 °F    
Average Humidity 76    
Maximum Humidity 93    
Minimum Humidity 58    
Precipitation  
Precipitation 0.24 in 0.12 in 0.50 in (2006)
Month to date precipitation 0.87 2.68  
Year to date precipitation 27.16 23.76  
Sea Level Pressure  
Sea Level Pressure 29.84 in    
Wind  
Wind Speed 7 mph (SSW)    
Max Wind Speed 24 mph    
Max Gust Speed 32 mph    
Visibility 8 miles    
Events Rain    
T = Trace of Precipitation, MM = Missing Value Source: NWS Daily Summary

Daily Weather History Graph

Daily Weather History Graph

Search for Another Location

Airport or City:

Astronomy

Aug. 18, 2019 Rise Set
Actual Time 6:05 AM CDT 7:49 PM CDT
Civil Twilight 5:35 AM CDT 8:19 PM CDT
Nautical Twilight 4:59 AM CDT 8:55 PM CDT
Astronomical Twilight 4:20 AM CDT 9:33 PM CDT
Moon 9:42 PM CDT (8/18) 8:51 AM CDT (8/18)
Length of Visible Light 14h 43m
Length of Day
13h 44m
Waning Gibbous, 91% of the Moon is Illuminated
Aug 18
Waning Gibbous
Aug 23
Last Quarter
Aug 30
New
Sep 5
First Quarter
Sep 13
Full

Hourly Weather History & Observations

Time (CDT) Temp. Heat Index Dew Point Humidity Pressure Visibility Wind Dir Wind Speed Gust Speed Precip Events Conditions
12:52 AM 66.9 °F - 64.9 °F 93% 29.86 in 6.0 mi SE 4.6 mph - N/A   Clear
1:19 AM 68.0 °F - 66.9 °F 96% 29.87 in 6.0 mi Calm Calm - N/A   Mostly Cloudy
1:52 AM 69.1 °F - 66.9 °F 93% 29.84 in 7.0 mi SE 5.8 mph - N/A   Overcast
2:52 AM 69.1 °F - 66.9 °F 93% 29.85 in 7.0 mi Calm Calm - N/A   Overcast
3:52 AM 69.1 °F - 66.9 °F 93% 29.84 in 7.0 mi East 3.5 mph - 0.00 in   Scattered Clouds
4:52 AM 70.0 °F - 68.0 °F 93% 29.79 in 6.0 mi SE 10.4 mph - 0.00 in Rain Light Rain
5:52 AM 70.0 °F - 68.0 °F 93% 29.80 in 5.0 mi SSE 8.1 mph - 0.01 in Rain Light Rain
6:29 AM 70.0 °F - 68.0 °F 93% 29.81 in 1.8 mi South 9.2 mph - 0.11 in Rain Heavy Rain
6:40 AM 70.0 °F - 68.0 °F 93% 29.80 in 3.0 mi SSE 11.5 mph - 0.16 in Rain Light Rain
6:52 AM 70.0 °F - 69.1 °F 97% 29.79 in 6.0 mi SSE 5.8 mph - 0.16 in   Mostly Cloudy
7:52 AM 72.0 °F - 70.0 °F 93% 29.80 in 3.0 mi South 8.1 mph - 0.05 in Rain Light Rain
8:25 AM 71.1 °F - 66.9 °F 87% 29.84 in 10.0 mi WNW 16.1 mph 28.8 mph 0.02 in   Overcast
8:52 AM 68.0 °F - 64.9 °F 90% 29.85 in 10.0 mi WNW 4.6 mph - 0.02 in Rain Light Rain
9:52 AM 72.0 °F - 64.9 °F 78% 29.86 in 10.0 mi ENE 5.8 mph - 0.00 in   Mostly Cloudy
10:52 AM 73.0 °F - 64.9 °F 76% 29.83 in 10.0 mi ESE 11.5 mph - N/A   Partly Cloudy
11:52 AM 77.0 °F - 68.0 °F 74% 29.78 in 10.0 mi SE 20.7 mph 27.6 mph N/A   Clear
12:52 PM 80.1 °F 82.7 °F 68.0 °F 67% 29.81 in 10.0 mi SSW 10.4 mph 19.6 mph N/A   Clear
1:52 PM 80.1 °F 82.7 °F 68.0 °F 67% 29.83 in 10.0 mi SW 11.5 mph - N/A   Clear
2:52 PM 81.0 °F 83.8 °F 68.0 °F 65% 29.83 in 10.0 mi WSW 11.5 mph 17.3 mph N/A   Partly Cloudy
3:52 PM 82.0 °F 84.1 °F 66.0 °F 58% 29.84 in 10.0 mi WSW 15.0 mph - N/A   Clear
4:52 PM 80.1 °F 81.7 °F 64.0 °F 58% 29.85 in 10.0 mi WSW 9.2 mph - N/A   Clear
5:52 PM 79.0 °F - 66.0 °F 64% 29.85 in 10.0 mi WSW 9.2 mph - N/A   Clear
6:52 PM 77.0 °F - 66.9 °F 71% 29.84 in 10.0 mi West 6.9 mph - N/A   Clear
7:52 PM 73.0 °F - 66.0 °F 79% 29.87 in 10.0 mi West 3.5 mph - N/A   Partly Cloudy
8:52 PM 70.0 °F - 66.0 °F 87% 29.89 in 10.0 mi Calm Calm - N/A   Clear
9:52 PM 66.0 °F - 63.0 °F 90% 29.91 in 10.0 mi WNW 3.5 mph - N/A   Clear
10:52 PM 66.9 °F - 64.0 °F 90% 29.91 in 10.0 mi Calm Calm - N/A   Clear
11:52 PM 64.9 °F - 63.0 °F 93% 29.91 in 10.0 mi Calm Calm - N/A   Clear